"Pseudo-MPEC" for ZNB957A

Created 2018 Jul 12 16:18:34 UT using Find_Orb

Click here for an explanation of pseudo-MPECs

 
 Astrometry: 
     ZNB957A  C2018 07 07.31192 19 00 44.98 +39 21 52.3          19.9 GUNEOCPG96
     ZNB957A  C2018 07 07.31723 19 00 44.58 +39 21 59.0          19.9 GUNEOCPG96
     ZNB957A  C2018 07 07.32253 19 00 44.18 +39 22 06.4          20.1 GUNEOCPG96
     ZNB957A  C2018 07 07.32782 19 00 43.79 +39 22 13.2          20.1 GUNEOCPG96
     ZNB957A KC2018 07 07U;AstrometryY4+nE26qa!h.1a=X[0=XTCgpCt3,h!uV`iUrYMZ[734
     ZNB957A KC2018 07 07;hl_%8Ivp#?8sb2,HOtI$P0n`('3(_/+DhwndmK*_EFr+I!Zr%d\734
     ZNB957A KC2018 07 07MJ?U7[q@tZ%?gAI8%/7K'wt\1Gau)5D78oW2*\+,^rM.eR=VXx-,734
     ZNB957A  C2018 07 07.42497 19 00 36.54 +39 24 20.1          19.9 GUNEOCPI52
     ZNB957A  C2018 07 07.42951 19 00 36.21 +39 24 25.9          20.1 GUNEOCPI52
     ZNB957A  C2018 07 07.43402 19 00 35.86 +39 24 31.9          19.9 GUNEOCPI52
     ZNB957A  C2018 07 07.43853 19 00 35.54 +39 24 37.7          20.1 GUNEOCPI52
     ZNB957A KC2018 07 07Z-u:kd:m.Q+XcrbE#H^PPF;(=K:oY!Owb$kSi_!Qk`/TXKS\tk2J587
     ZNB957A KC2018 07 077',T,!IeVR=W.LnMQ_g;mFfF\:8H))K85aU\nr%ZL%(SVAAKhA85587
     ZNB957A KC2018 07 07W,'YKdbvQ`82287G?OLLKmx9hj(yvcXGNtwPLSnfkZy^qF#gO):Q587
     ZNB957A KC2018 07 08l:?\B?X,wZZLWdR13Vmq:?=q,m!GRlaKN^jajBA$nRBF=UdtI\4BL01
     ZNB957A KC2018 07 08S`NaOHmuc$G/ek+`Iy8lyVG=*JSrl-Xua?$c2yM+#N:B@E(ixu5wL01
     ZNB957A KC2018 07 08Q]n5aH-./f)p_-ZL`aWd5K`UJiyHd4yoKG*3o7u$W$Oqe/CKJTi_734
     ZNB957A KC2018 07 08%Po)sn+]\*,b+6u!'JY9N.0mq-uab[@lPIexTZ8.BCxqx%AXrI@(734
     ZNB957A KC2018 07 08li5gPwJiRs.PM0e?-cYausn$nP@:t/'J,*OO6H]gPmRoe92'rNWM734
     ZNB957A  C2018 07 08!%+o/K/)[kTAO)K?+.,[V8+A,qIXE+G_6pnZxQ%,L.iwMt,40Lo]U63
     ZNB957A  C2018 07 082f,kffPgKA]@7qrhvredacted;$n^ml2gRFQnLFQ_g8PSX@^!W$8U63
     ZNB957A  C2018 07 08)PYTOGAPhsvtAH@raad7:Cr4'sF_2O5l.CAjV2i,,0/']ph!b)DZU63
     ZNB957A  C2018 07 08q%-=dsFSfUva5@XlSGR_2afoXUpt8oT/t;M95MlU(CpcNdvV.XvWU63
     ZNB957A  C2018 07 08jQ'dCPrSK3ZH-dWj-NbqgRvC`TtqDKS.I)ZV.njLpQ7NADV]oXc7U63
     ZNB957A  C2018 07 08e`4Kn.w94P!]Y\9h*)nZ+(V*^9SqWj\q%aeg8X!hZ^pQjZ^oD]%(U63
     ZNB957A  C2018 07 08ur[lOL(+D@r\xN%22'(dK(xc]G-tL5oEKNQDO6Bo.%G\*ZIebg6EU63
     ZNB957A KC2018 07 08?y(gamPKlUgA,fJB.s+g@Aqj6c1L.QjrAF?KK2'9S3%#0gv;Up\qC95
     ZNB957A KC2018 07 08M=48iBiIf;Df[p7mw*d/Wtw-5R#LXtSO.k?*5BJPg6e7(X42XRv5C95
     ZNB957A KC2018 07 09'MBYFh7tuA)g`g\8,#(r:0*(wc[sRbFOX%O!p#v7,=QN?hfLknx,C95
     ZNB957A KC2018 07 09Y(4VEI)x1O'D.0y$3upt9!H2i48[\6go?UKd%Tj]w4k-3Juc@oVAK87
     ZNB957A KC2018 07 09qhe+'FAqg7jB/GK%8.#TdnX_WR.3M%U8d6^`.KQxnm-or3-[jh5.K87
     ZNB957A KC2018 07 09\GH9yVL6[eTr#:ZOk2w_@l1-TlQB[_$(-q'dQTT2s.^vIr%:+S%IK87
     ZNB957A KC2018 07 09?2#1cymH#u0N#t%1(k^6*Z9V:TaafeRBseel;A_x4NL7+*Q:t5O4H21
     ZNB957A KC2018 07 09kiBS+]sKLm0g5o_3)g:uiyQMPlHeA\W0$doa]@%/4iQ#^j6BX*qGH21
     ZNB957A  C2018 07 09.32817 18 58 19.85 +40 04 48.6          20.2 GUNEOCPG96
     ZNB957A  C2018 07 09.33151 18 58 19.60 +40 04 52.9                UNEOCPG96
     ZNB957A  C2018 07 09.33539 18 58 19.29 +40 04 57.5          20.4 GUNEOCPG96
     ZNB957A KC2018 07 09*uZHwiY1S7u#R2C2v1!Mh:qY\Oc-Qm/L(2#\U6m/MBf%Tc7*umW=K63
     ZNB957A KC2018 07 09-OvCX`P/-95iK8K[NDU:0[osLyH?1fL:boLHy\0mqyrdKS8Cwn^-K63
     ZNB957A KC2018 07 09)-[/`)OKoUe2%l4XNDKyDxcI+Vl)$Pja]%pD/EoXU5jZ[Yl/#b!pK63
     ZNB957A KC2018 07 10J!\q^:GO!_.q]=q,Put`VSR?WJ(2t.]vD.Z^Uc_nr0Qi[8?a3:!jB49
     ZNB957A KC2018 07 10G.c$2k7-SN)w\=5k[N`-9kPt)J\q];ek$D$p5e#=HUyejD?^aX*lB49
     ZNB957A KC2018 07 10,3h*Zyyq$CON2:QOb,((QM\Jex\ojh),Wg@]gs.E=8sO,JYI1a+bB49
     ZNB957A  C2018 07 124A2T?nI/6,omNi*ocm:Z_3/k7Bn*yru*L:xv$5(s\0=A%4?`M,IxU63
     ZNB957A  C2018 07 12lgv@?n;IuVq4kS-'d$HC*6cjcIn\G`I6iu^_DY;*OE^6M;uEyfbDU63
     ZNB957A  C2018 07 12O28e3R45hX0L=/,2c6;/N+6PF1PQ8D'$\Fl45[VmF(dU4Pr%k[SvU63
     ZNB957A  C2018 07 12q^w]4w4Ao_WQEQf!x2]bAL8:Q]u^YmBVP0-k(4P9P[^[G9YZQuU#U63
     ZNB957A  C2018 07 12go.JEl)li:vyG:j*NtCX/\91OLEG]4pk^o^Ba'\]]wKgy18NEOCPU63

Station data:
(587) Sormano  (N45.882949 E9.229180)  Italy.  Observers F. Manca, A. Testa.
   Measurer F. Manca. 0.5-m + CCD.
(734) Farpoint Observatory, Eskridge  (N38.890107 W96.001400)  US/Kansas.
   Observer G. Hug. .3 meter s-c + CCD.
(B49) Paus Observatory, Sabadell  (N41.551135 E2.112690)  Spain.
(C95) SATINO Remote Observatory, Haute Provence  (N43.932042 E5.712390)
   France.
(G96) Mt. Lemmon Survey  (N32.442754 W110.788720)  US/Arizona.  Observers B.
   M. Africano, E. J. Christensen, D. C. Fuls, A. R. Gibbs, A. D. Grauer, J.
   A. Johnson, R. A. Kowalski, S. M. Larson, G. J. Leonard, R. L. Seaman, F.
   C. Shelly. 1.5-m reflector + 10K CCD.
(H21) Astronomical Research Observatory, Westfield  (N39.483057 W87.968270)
   US/Illinois. 0.76-m f/3.0 astrograph + CCD.
(I52) Steward Observatory, Mt. Lemmon Station  (N32.442547 W110.788920)
   US/Arizona.  Observers B. M. Africano, E. J. Christensen, D. C. Fuls, A.
   R. Gibbs, A. D. Grauer, J. A. Johnson, R. A. Kowalski, S. M. Larson, G. J.
   Leonard, R. L. Seaman, F. C. Shelly. 1.0-m reflector + CCD.
(K63) G. Pascoli Observatory, Castelvecchio Pascoli  (N44.082410 E10.462000)
   Italy.
(K87) Dettelbach Vineyard Observatory  (N49.807693 E10.170110)  Germany.
(L01) Višnjan Observatory, Tičan  (N45.290900 E13.749300)  Croatia.  Observer
   K. Korlević. 1.0-m f/2.9 reflector + CCD.
(U63) Burnt Tree Hill Observatory, Cle Elum  (N47.162715 W120.805440)
   US/Washington.

Orbital elements:  ZNB957A
   Perihelion 2018 Sep 5.896769 +/- 1.23 TT = 21:31:20 (JD 2458367.396769)
Epoch 2018 Jul 12.0 TT = JDT 2458311.5                        AutoNEOCP
M 350.67947 +/- 0.34                (J2000 ecliptic)
n   0.16674529 +/- 0.00276          Peri.   83.70588 +/- 0.7
a   3.26914100 +/- 0.036            Node   241.92618 +/- 0.21
e   0.4465855 +/- 0.00397           Incl.   42.11798 +/- 0.17
P   5.91                   H 17.4   G  0.15   U  8.8  
q 1.80918988 +/- 0.00717    Q 4.72909212 +/- 0.0664
From 48 observations 2018 July 7-12; mean residual 0".33
Residuals in arcseconds: 
180707 G96  .16+  .04-    180708 734  .06+  .52+    180709 H21  .10+  .29+    
180707 G96  .12+  .34-    180708 734  .41-  .65+    180709 H21  .08-  .34+    
180707 G96  .08+  .08+    180708 734  .26-  .33-    180709 G96  .06+  .25+    
180707 G96  .14+  .09-    180708 U63  .26-  .07+    180709 G96  .10+  .44+    
180707 734  .37-  .65+    180708 U63  .07+  .25+    180709 G96  .08-  .26+    
180707 734  .20-  .09+    180708 U63  .05-  .50-    180709 K63  .68+  .61+    
180707 734  .07-  .01-    180708 U63  .34+  .30+    180709 K63  .40-  .27+    
180707 I52  .03-  .12-    180708 U63  .15+  .67-    180709 K63  .13+  .53+    
180707 I52  .03+  .21-    180708 U63  .05+  .15+    180710 B49  .05+  .92-    
180707 I52  .16-  .06-    180708 U63  .11-  .78-    180710 B49  .53-  .42-    
180707 I52  .01-  .10-    180708 C95  .43-  .52-    180710 B49  .39-  .51-    
180707 587  .04-  .11-    180708 C95  .48+  .42+    180712 U63  .10+  .38+    
180707 587  .09+  .20-    180709 C95  .61+  .35+    180712 U63  .11+  .30+    
180707 587  .05+  .38+    180709 K87  .16-  .77-    180712 U63  .09-  .20-    
180708 L01  .24+  .05-    180709 K87  .08-  .66-    180712 U63  .07+  .15+    
180708 L01  .04+  .20+    180709 K87  .19-  .52-    180712 U63  .21+  .04+    

Ephemerides (geocentric):
Date (UTC) HH   RA              Dec         delta   r     elong  mag " sig PA
---- -- -- --  -------------   -----------  ------ ------ -----  --- ---- ---
2018 07 12 16  18 54 16.306   +41 09 36.76  1.1796 1.8690 116.4 20.4  .19  55
2018 07 12 17  18 54 13.253   +41 10 22.31  1.1797 1.8689 116.4 20.4  .20  55
2018 07 12 18  18 54 10.199   +41 11 07.80  1.1797 1.8689 116.4 20.4  .21  55
2018 07 12 19  18 54 07.145   +41 11 53.20  1.1798 1.8688 116.4 20.4  .22  55
2018 07 12 20  18 54 04.092   +41 12 38.54  1.1798 1.8687 116.4 20.4  .22  55
2018 07 12 21  18 54 01.038   +41 13 23.80  1.1799 1.8686 116.4 20.4  .23  54
2018 07 12 22  18 53 57.984   +41 14 08.98  1.1799 1.8685 116.4 20.4  .24  54
2018 07 12 23  18 53 54.930   +41 14 54.09  1.1800 1.8684 116.4 20.4  .25  54
2018 07 13 00  18 53 51.876   +41 15 39.13  1.1800 1.8683 116.3 20.4  .26  54
2018 07 13 01  18 53 48.822   +41 16 24.09  1.1801 1.8682 116.3 20.4  .26  54
2018 07 13 02  18 53 45.768   +41 17 08.98  1.1801 1.8682 116.3 20.4  .27  54
2018 07 13 03  18 53 42.714   +41 17 53.80  1.1802 1.8681 116.3 20.4  .28  53
2018 07 13 04  18 53 39.660   +41 18 38.54  1.1802 1.8680 116.3 20.4  .29  53
2018 07 13 05  18 53 36.606   +41 19 23.21  1.1803 1.8679 116.3 20.4  .30  53
2018 07 13 06  18 53 33.552   +41 20 07.81  1.1803 1.8678 116.3 20.4  .31  53
2018 07 13 07  18 53 30.498   +41 20 52.33  1.1804 1.8677 116.3 20.4  .32  53
2018 07 13 08  18 53 27.444   +41 21 36.77  1.1804 1.8676 116.2 20.4  .33  53
2018 07 13 09  18 53 24.390   +41 22 21.15  1.1805 1.8675 116.2 20.4  .34  53
2018 07 13 10  18 53 21.337   +41 23 05.45  1.1805 1.8675 116.2 20.4  .34  52
2018 07 13 11  18 53 18.283   +41 23 49.67  1.1806 1.8674 116.2 20.4  .35  52
2018 07 13 12  18 53 15.229   +41 24 33.82  1.1806 1.8673 116.2 20.4  .36  52
2018 07 13 13  18 53 12.176   +41 25 17.90  1.1807 1.8672 116.2 20.4  .37  52
2018 07 13 14  18 53 09.122   +41 26 01.91  1.1807 1.8671 116.2 20.4  .38  52
2018 07 13 15  18 53 06.069   +41 26 45.84  1.1808 1.8670 116.2 20.4  .39  52
2018 07 13 16  18 53 03.016   +41 27 29.69  1.1808 1.8669 116.1 20.4  .40  52
2018 07 13 17  18 52 59.963   +41 28 13.48  1.1809 1.8669 116.1 20.4  .41  52
2018 07 13 18  18 52 56.910   +41 28 57.18  1.1809 1.8668 116.1 20.4  .42  51
2018 07 13 19  18 52 53.857   +41 29 40.82  1.1810 1.8667 116.1 20.4  .43  51
2018 07 13 20  18 52 50.804   +41 30 24.38  1.1810 1.8666 116.1 20.4  .44  51
2018 07 13 21  18 52 47.751   +41 31 07.87  1.1811 1.8665 116.1 20.4  .45  51
2018 07 13 22  18 52 44.699   +41 31 51.28  1.1811 1.8664 116.1 20.4  .46  51
2018 07 13 23  18 52 41.647   +41 32 34.62  1.1812 1.8663 116.1 20.4  .47  51
2018 07 14 00  18 52 38.595   +41 33 17.89  1.1812 1.8663 116.0 20.4  .49  51
2018 07 14 01  18 52 35.543   +41 34 01.08  1.1813 1.8662 116.0 20.4  .50  51
2018 07 14 02  18 52 32.491   +41 34 44.20  1.1814 1.8661 116.0 20.4  .51  51
2018 07 14 03  18 52 29.440   +41 35 27.24  1.1814 1.8660 116.0 20.4  .52  51
2018 07 14 04  18 52 26.388   +41 36 10.21  1.1815 1.8659 116.0 20.4  .53  50
2018 07 14 05  18 52 23.337   +41 36 53.11  1.1815 1.8658 116.0 20.4  .54  50
2018 07 14 06  18 52 20.287   +41 37 35.93  1.1816 1.8657 116.0 20.4  .55  50
2018 07 14 07  18 52 17.236   +41 38 18.68  1.1816 1.8657 115.9 20.4  .56  50
2018 07 14 08  18 52 14.186   +41 39 01.36  1.1817 1.8656 115.9 20.4  .58  50
2018 07 14 09  18 52 11.136   +41 39 43.96  1.1817 1.8655 115.9 20.4  .59  50
2018 07 14 10  18 52 08.086   +41 40 26.49  1.1818 1.8654 115.9 20.4  .60  50
2018 07 14 11  18 52 05.037   +41 41 08.94  1.1818 1.8653 115.9 20.4  .61  50
2018 07 14 12  18 52 01.987   +41 41 51.32  1.1819 1.8652 115.9 20.4  .62  50
2018 07 14 13  18 51 58.939   +41 42 33.63  1.1820 1.8651 115.9 20.4  .63  50
2018 07 14 14  18 51 55.890   +41 43 15.86  1.1820 1.8651 115.9 20.4  .65  49
2018 07 14 15  18 51 52.842   +41 43 58.02  1.1821 1.8650 115.8 20.4  .66  49